FW9431 Weather Reports


time (UTC)temp
F
wind
direction
speed
knots
gust
knots
rain 1hr
in
rain 24hr
in
rain mn
in
humidity
%
barometer
mb
20260506235122 53 355 0.0 0.9 0.00 0.30 0.30 57 1011.4
20260506234620 53 356 0.0 0.0 0.00 0.30 0.30 56 1011.4
20260506234117 54 353 0.9 4.3 0.00 0.30 0.30 55 1011.3
20260506233614 54 355 0.9 1.7 0.00 0.30 0.30 55 1011.2
20260506233111 54 286 0.9 1.7 0.00 0.30 0.30 55 1011.3
20260506232607 54 356 0.0 0.9 0.00 0.30 0.30 54 1011.5
20260506232102 54 8 0.0 1.7 0.00 0.30 0.30 55 1011.7
20260506231559 54 350 0.9 1.7 0.00 0.30 0.30 53 1011.4
20260506231058 54 338 0.9 2.6 0.00 0.30 0.30 54 1011.8
20260506230554 54 319 0.9 1.7 0.00 0.30 0.30 55 1012.0
20260506230051 54 352 0.0 1.7 0.00 0.30 0.30 55 1011.7
20260506225548 54 296 2.6 4.3 0.00 0.30 0.30 55 1011.7
20260506225044 54 315 1.7 2.6 0.00 0.30 0.30 54 1011.8
20260506224541 54 320 2.6 2.6 0.00 0.30 0.30 54 1012.0
20260506224038 54 350 0.9 1.7 0.00 0.30 0.30 54 1012.0
20260506223534 54 320 2.6 2.6 0.00 0.30 0.30 54 1012.0
20260506223030 54 352 0.9 4.3 0.00 0.30 0.30 53 1012.2
20260506222527 55 247 4.3 7.0 0.00 0.30 0.30 52 1012.0
20260506222024 55 355 0.9 6.1 0.00 0.30 0.30 51 1011.9
20260506221521 55 332 2.6 2.6 0.00 0.30 0.30 52 1011.6
20260506221019 55 348 0.9 2.6 0.00 0.30 0.30 50 1011.4
20260506220514 55 351 3.5 5.2 0.00 0.30 0.30 51 1011.4
20260506220010 55 359 0.9 4.3 0.00 0.30 0.30 51 1011.2
20260506215507 55 255 1.7 2.6 0.00 0.30 0.30 50 1011.3
20260506215003 55 354 3.5 6.1 0.00 0.30 0.30 51 1011.2
20260506214500 55 352 0.9 1.7 0.00 0.30 0.30 55 1011.2
20260506213957 55 343 2.6 5.2 0.00 0.30 0.30 53 1010.9
20260506213455 55 340 1.7 7.0 0.00 0.30 0.30 52 1011.0
20260506212952 55 345 1.7 7.8 0.00 0.30 0.30 54 1011.0
20260506212448 55 308 4.3 5.2 0.00 0.30 0.30 54 1010.9
20260506211943 55 292 4.3 6.1 0.00 0.30 0.30 54 1010.9
20260506211439 55 266 1.7 5.2 0.00 0.30 0.30 57 1010.9
20260506210936 55 342 0.9 5.2 0.00 0.30 0.30 56 1010.7
20260506210433 55 331 1.7 6.1 0.00 0.30 0.30 54 1010.9
20260506205930 56 340 3.5 7.8 0.00 0.30 0.30 54 1010.6
20260506205426 56 238 3.5 7.8 0.00 0.30 0.30 54 1010.6
20260506204922 56 3 1.7 5.2 0.00 0.30 0.30 55 1010.6
20260506204421 56 342 1.7 2.6 0.00 0.30 0.30 56 1010.6
20260506203918 57 300 4.3 7.0 0.00 0.30 0.30 54 1010.6
20260506203415 56 293 3.5 6.1 0.00 0.30 0.30 54 1010.6
20260506202911 57 326 3.5 4.3 0.00 0.30 0.30 53 1010.5
20260506202409 57 355 0.9 5.2 0.00 0.30 0.30 52 1010.5
20260506201905 58 237 4.3 5.2 0.00 0.30 0.30 53 1010.4
20260506201403 57 351 0.9 5.2 0.00 0.30 0.30 52 1010.4
20260506200859 58 318 1.7 4.3 0.00 0.30 0.30 51 1010.6
20260506200355 58 344 5.2 6.1 0.00 0.30 0.30 52 1010.4
20260506195851 58 349 0.0 2.6 0.00 0.30 0.30 53 1010.3
20260506195349 58 351 2.6 7.0 0.00 0.30 0.30 52 1010.3
20260506194846 58 333 1.7 4.3 0.00 0.30 0.30 54 1010.5
20260506194342 59 6 1.7 5.2 0.00 0.30 0.30 52 1010.4
20260506193840 58 335 0.9 4.3 0.00 0.30 0.30 54 1010.4
20260506193336 58 55 2.6 5.2 0.00 0.30 0.30 53 1010.3
20260506192833 59 340 1.7 5.2 0.00 0.30 0.30 50 1010.3
20260506192330 60 335 1.7 2.6 0.00 0.30 0.30 54 1010.1
20260506191827 59 357 1.7 4.3 0.00 0.30 0.30 52 1010.2
20260506191323 59 303 2.6 6.1 0.00 0.30 0.30 53 1010.6
20260506190820 59 39 1.7 2.6 0.00 0.30 0.30 52 1010.6
20260506190316 58 13 3.5 5.2 0.00 0.30 0.30 52 1010.4
20260506185814 58 49 5.2 7.0 0.00 0.30 0.30 53 1010.2
20260506185311 59 345 3.5 4.3 0.00 0.30 0.30 50 1010.5
20260506184808 59 231 6.1 7.8 0.00 0.30 0.30 51 1010.6
20260506184305 58 321 1.7 4.3 0.00 0.30 0.30 52 1010.6
20260506183802 57 307 2.6 6.1 0.00 0.30 0.30 54 1010.5
20260506183257 57 257 4.3 6.1 0.00 0.30 0.30 52 1010.5
20260506182754 58 293 3.5 9.6 0.00 0.30 0.30 54 1010.4
20260506182251 57 351 1.7 5.2 0.00 0.30 0.30 54 1010.5
20260506181749 57 296 0.9 6.1 0.00 0.30 0.30 54 1010.5
20260506181247 57 1 1.7 5.2 0.00 0.30 0.30 53 1010.4
20260506180744 57 7 1.7 4.3 0.00 0.30 0.30 54 1010.7
20260506180239 57 302 5.2 7.0 0.00 0.30 0.30 53 1010.5
20260506175736 57 1 4.3 8.7 0.00 0.30 0.30 53 1010.7
20260506175233 57 268 4.3 7.0 0.00 0.30 0.30 52 1010.8
20260506174731 56 318 1.7 5.2 0.00 0.30 0.30 52 1010.8
20260506174227 57 358 0.9 5.2 0.00 0.30 0.30 52 1010.7
20260506173725 58 347 2.6 5.2 0.00 0.30 0.30 52 1010.7
20260506173222 58 349 0.9 5.2 0.00 0.30 0.30 51 1010.8
20260506172719 57 304 3.5 6.1 0.00 0.30 0.30 51 1010.7
20260506172215 57 4 0.9 11.3 0.00 0.30 0.30 53 1010.8
20260506171713 58 341 6.1 11.3 0.00 0.30 0.30 51 1010.8
20260506171210 57 338 4.3 9.6 0.00 0.30 0.30 55 1010.4
20260506170707 57 257 2.6 5.2 0.00 0.30 0.30 54 1010.3
20260506170204 56 303 4.3 7.8 0.00 0.30 0.30 52 1010.4
20260506165702 56 14 5.2 7.0 0.00 0.30 0.30 55 1010.3
20260506165159 57 283 4.3 7.8 0.00 0.30 0.30 58 1010.8
20260506164656 56 357 2.6 7.0 0.00 0.30 0.30 59 1011.0
20260506164153 55 327 4.3 7.0 0.00 0.30 0.30 58 1010.9
20260506163649 57 323 3.5 9.6 0.00 0.30 0.30 63 1010.7
20260506163145 56 333 1.7 5.2 0.00 0.30 0.30 56 1010.6
20260506162641 55 349 0.9 4.3 0.00 0.30 0.30 61 1010.5
20260506162138 55 358 0.9 4.3 0.00 0.30 0.30 63 1010.3
20260506161636 54 299 2.6 4.3 0.00 0.30 0.30 62 1010.6
20260506161132 54 13 1.7 6.1 0.00 0.30 0.30 67 1010.5
20260506160630 55 293 4.3 4.3 0.00 0.30 0.30 69 1010.4
20260506160126 55 19 3.5 6.1 0.00 0.30 0.30 65 1010.3
20260506155626 56 6 0.9 1.7 0.00 0.30 0.30 68 1010.2
20260506155122 54 256 5.2 6.1 0.00 0.30 0.30 70 1010.3
20260506153224 53 345 0.9 1.7 0.00 0.30 0.30 71 1010.1
20260506152721 53 337 2.6 6.1 0.00 0.30 0.30 71 1009.9
20260506152219 52 329 1.7 1.7 0.00 0.30 0.30 72 1010.1
20260506151718 51 344 1.7 4.3 0.00 0.30 0.30 72 1010.1
20260506151214 52 0 1.7 5.2 0.00 0.30 0.30 74 1010.1
20260506150710 51 301 5.2 7.8 0.00 0.30 0.30 77 1009.9
20260506150207 51 302 2.6 6.1 0.00 0.30 0.30 77 1010.0
20260506145704 51 306 3.5 5.2 0.00 0.30 0.30 79 1009.8
20260506145201 50 348 1.7 4.3 0.00 0.30 0.30 80 1009.9
20260506144659 50 326 2.6 2.6 0.00 0.30 0.30 82 1010.1
20260506144155 50 257 4.3 5.2 0.00 0.30 0.30 84 1009.9
20260506143653 50 343 2.6 6.1 0.00 0.30 0.30 84 1009.7
20260506143150 50 356 1.7 4.3 0.00 0.30 0.30 84 1009.5
20260506142649 50 289 3.5 5.2 0.00 0.30 0.30 84 1009.4
20260506142146 50 349 0.9 5.2 0.00 0.30 0.30 84 1009.0
20260506141644 50 351 0.9 2.6 0.00 0.30 0.30 84 1009.3
20260506141142 49 1 0.9 2.6 0.00 0.30 0.30 86 1009.1
20260506140639 48 22 1.7 5.2 0.00 0.30 0.30 89 1009.3
20260506140136 47 332 0.9 4.3 0.00 0.30 0.30 92 1009.2
20260506135633 47 1 0.9 6.1 0.00 0.30 0.30 93 1008.7
20260506135129 47 337 0.9 1.7 0.00 0.30 0.30 93 1008.9
20260506134626 46 271 3.5 4.3 0.00 0.30 0.30 93 1008.9
20260506134122 47 62 4.3 7.8 0.00 0.30 0.30 93 1008.8
20260506133619 47 315 2.6 2.6 0.00 0.30 0.30 93 1008.7
20260506133116 48 346 0.9 1.7 0.00 0.30 0.30 93 1008.4
20260506132614 47 356 0.0 1.7 0.00 0.30 0.30 93 1008.6
20260506132111 47 4 0.9 2.6 0.00 0.30 0.30 93 1008.6
20260506131608 47 2 0.0 1.7 0.00 0.30 0.30 93 1008.7
20260506131104 47 357 1.7 1.7 0.00 0.30 0.30 93 1008.6
20260506130601 46 357 0.9 4.3 0.00 0.30 0.30 93 1008.6
20260506130059 46 318 2.6 5.2 0.00 0.30 0.30 93 1008.7
20260506125557 46 355 0.9 1.7 0.00 0.30 0.30 93 1008.9
20260506125054 46 353 0.9 1.7 0.00 0.30 0.30 93 1008.8
20260506124552 46 358 1.7 1.7 0.00 0.30 0.30 93 1008.1
20260506124049 46 20 1.7 2.6 0.00 0.30 0.30 93 1007.8
20260506123547 47 26 1.7 2.6 0.00 0.30 0.30 93 1007.9
20260506123045 46 324 1.7 1.7 0.00 0.30 0.30 93 1008.0
20260506122541 46 333 1.7 1.7 0.00 0.30 0.30 93 1008.1
20260506122040 46 358 0.0 0.9 0.00 0.30 0.30 93 1007.8
20260506121537 46 333 0.9 0.9 0.00 0.30 0.30 93 1007.7
20260506121033 46 356 0.9 2.6 0.00 0.30 0.30 93 1007.9
20260506120531 46 337 1.7 2.6 0.00 0.30 0.30 93 1007.8
20260506120028 46 16 0.0 0.9 0.00 0.30 0.30 93 1007.5
20260506115526 45 282 2.6 4.3 0.00 0.30 0.30 93 1007.9
20260506115024 45 12 0.0 1.7 0.00 0.30 0.30 93 1008.1
20260506114521 45 356 0.9 1.7 0.00 0.30 0.30 93 1008.0
20260506114020 45 12 0.9 1.7 0.00 0.30 0.30 93 1007.4
20260506113517 45 358 0.9 1.7 0.00 0.30 0.30 93 1007.6
20260506113014 45 343 0.0 0.9 0.00 0.30 0.30 93 1007.4
20260506112511 45 343 0.9 4.3 0.00 0.30 0.30 93 1007.4
20260506112008 45 340 0.0 1.7 0.05 0.30 0.30 93 1006.9
20260506111506 45 66 2.6 5.2 0.05 0.30 0.30 93 1006.6
20260506111003 45 15 0.9 4.3 0.00 0.29 0.29 93 1006.3
20260506110501 45 0 0.9 6.1 0.00 0.29 0.29 93 1006.7
20260506105957 45 354 1.7 4.3 0.00 0.29 0.29 93 1006.8
20260506105453 45 14 2.6 4.3 0.00 0.29 0.29 93 1007.0
20260506104951 46 348 0.9 1.7 0.00 0.29 0.29 93 1007.0
20260506104449 46 351 0.9 1.7 0.00 0.29 0.29 93 1007.1
20260506103947 46 336 0.0 4.3 0.00 0.29 0.29 93 1006.8
20260506103444 46 359 0.0 1.7 0.00 0.29 0.29 93 1006.7
20260506102940 46 3 0.0 0.9 0.00 0.29 0.29 93 1006.1
20260506102438 46 358 0.0 0.9 0.00 0.29 0.29 93 1006.1
20260506101935 46 356 0.9 1.7 0.00 0.29 0.29 93 1006.1
20260506101432 46 336 1.7 1.7 0.00 0.29 0.29 93 1005.9
20260506100929 45 357 0.9 0.9 0.00 0.29 0.29 93 1005.3
20260506100427 45 348 0.0 4.3 0.00 0.29 0.29 93 1005.4
20260506095925 46 57 0.9 1.7 0.00 0.29 0.29 93 1005.3
20260506095424 46 95 1.7 4.3 0.00 0.29 0.29 93 1005.7
20260506094919 46 355 1.7 4.3 0.00 0.29 0.29 93 1005.6
20260506094418 46 349 0.9 5.2 0.00 0.29 0.29 93 1005.8
20260506093915 46 355 0.0 2.6 0.00 0.29 0.29 93 1005.9
20260506093413 46 45 2.6 2.6 0.00 0.29 0.29 93 1005.5
20260506092911 46 328 0.9 6.1 0.00 0.29 0.29 93 1005.7
20260506092409 46 312 2.6 4.3 0.07 0.29 0.29 93 1005.7
20260506091904 47 352 2.6 4.3 0.07 0.29 0.29 93 1005.6
20260506091403 47 59 1.7 2.6 0.05 0.28 0.28 93 1005.1
20260506090900 47 338 1.7 6.1 0.12 0.28 0.28 93 1005.3
20260506090358 47 357 0.9 7.0 0.07 0.27 0.27 93 1005.2
20260506085854 48 19 0.9 7.0 0.00 0.26 0.26 93 1005.8
20260506085350 48 3 1.7 5.2 0.05 0.26 0.26 93 1005.6
20260506084847 48 354 0.9 2.6 0.05 0.26 0.26 93 1005.7
20260506084344 48 7 1.7 2.6 0.07 0.25 0.25 93 1005.4
20260506083840 48 17 0.0 5.2 0.14 0.25 0.25 93 1005.3
20260506083338 48 353 0.9 1.7 0.19 0.24 0.24 93 1005.6
20260506082835 48 7 2.6 4.3 0.07 0.22 0.22 93 1005.6
20260506082332 48 324 1.7 7.8 0.05 0.21 0.21 93 1005.4
20260506081828 49 310 3.5 7.8 0.05 0.21 0.21 93 1005.2
20260506081326 49 348 0.9 4.3 0.00 0.20 0.20 93 1005.4
20260506080823 49 325 2.6 2.6 0.00 0.20 0.20 93 1005.2
20260506080319 49 337 2.6 5.2 0.00 0.20 0.20 93 1005.2
20260506073304 50 6 0.9 1.7 0.07 0.20 0.20 93 1004.4
20260506072800 50 18 1.7 2.6 0.12 0.20 0.20 93 1004.8
20260506072258 50 318 0.9 1.7 0.12 0.19 0.19 93 1004.6
20260506071755 50 357 0.9 1.7 0.07 0.18 0.18 93 1004.4
20260506071254 50 352 0.9 1.7 0.05 0.17 0.17 93 1004.6
20260506070750 50 249 1.7 4.3 0.05 0.17 0.17 93 1004.6
20260506070247 51 355 2.6 5.2 0.07 0.16 0.16 93 1004.6
20260506062224 52 346 0.0 0.0 0.05 0.10 0.10 93 1004.4
20260506061720 52 344 0.0 2.6 0.00 0.09 0.09 93 1004.6
20260506061218 52 341 0.9 4.3 0.07 0.09 0.09 93 1004.6
20260506060716 52 337 0.9 1.7 0.12 0.09 0.09 93 1004.7
20260506060213 53 357 0.0 0.0 0.17 0.08 0.08 93 1004.4
20260506051145 57 328 1.7 1.7 0.00 0.00 0.00 93 1005.2
20260506050643 57 358 0.0 0.0 0.00 0.00 0.00 93 1005.1
20260506050140 57 358 0.0 1.7 0.00 0.00 0.00 93 1005.1
20260506045133 57 18 0.0 1.7 0.00 0.00 0.00 93 1005.1
20260506044631 57 17 0.0 0.0 0.00 0.00 0.00 93 1005.2
20260506044128 57 225 1.7 1.7 0.00 0.00 0.00 93 1005.5
20260506043625 57 11 0.0 1.7 0.00 0.00 0.00 93 1005.4
20260506043123 57 222 1.7 1.7 0.00 0.00 0.00 93 1005.5
20260506042622 57 1 0.9 1.7 0.00 0.00 0.00 93 1005.4
20260506042119 57 137 0.9 4.3 0.00 0.00 0.00 93 1005.4
20260506041618 57 351 0.9 1.7 0.00 0.00 0.00 93 1005.5
20260506041114 57 349 0.9 2.6 0.00 0.00 0.00 93 1005.7
20260506040612 58 313 0.9 1.7 0.07 0.00 0.00 93 1005.7
20260506040108 58 157 1.7 2.6 0.12 0.00 0.00 93 1005.6
20260506035605 58 327 0.9 4.3 0.12 0.52 0.52 93 1005.9
20260506035102 58 348 0.0 2.6 0.12 0.51 0.51 93 1006.0
20260506034559 58 78 0.9 1.7 0.17 0.50 0.50 93 1005.8
20260506034056 58 355 0.0 1.7 0.24 0.49 0.49 93 1006.1
20260506033553 58 59 0.0 2.6 0.19 0.47 0.47 93 1006.4
20260506033050 58 358 0.0 1.7 0.19 0.45 0.45 93 1006.1
20260506032548 58 310 0.9 2.6 0.24 0.44 0.44 93 1006.1
20260506032044 58 307 2.6 2.6 0.19 0.42 0.42 93 1006.4
20260506031542 58 359 0.0 1.7 0.12 0.40 0.40 93 1006.6
20260506031038 58 163 0.0 2.6 0.12 0.39 0.39 93 1006.5
20260506030537 58 330 0.9 1.7 0.12 0.38 0.38 93 1006.5
20260506030034 58 293 0.9 0.9 0.12 0.37 0.37 93 1006.3
20260506025531 58 340 0.9 1.7 0.12 0.36 0.36 93 1006.3
20260506025026 58 346 0.0 0.9 0.12 0.35 0.35 93 1006.3
20260506024524 58 36 0.0 0.9 0.19 0.34 0.34 93 1006.5
20260506024020 58 262 2.6 2.6 0.12 0.32 0.32 93 1006.7
20260506023516 58 357 0.0 2.6 0.17 0.31 0.31 93 1006.6
20260506023014 58 342 0.0 0.9 0.19 0.30 0.30 93 1006.8
20260506022512 59 358 0.0 4.3 0.19 0.28 0.28 93 1006.7
20260506022009 59 330 0.0 0.0 0.17 0.26 0.26 93 1006.9
20260506021506 59 284 2.6 2.6 0.19 0.25 0.25 93 1006.6
20260506021003 59 346 0.0 1.7 0.12 0.23 0.23 93 1006.5
20260506020501 59 0 0.0 0.0 0.17 0.22 0.22 93 1006.5
20260506015957 59 335 0.0 2.6 0.19 0.21 0.21 93 1006.6
20260506015455 59 266 0.9 2.6 0.19 0.19 0.19 93 1006.6
20260506014952 59 358 0.0 0.9 0.17 0.18 0.18 93 1006.5
20260506014449 59 18 0.0 1.7 0.12 0.16 0.16 93 1006.5
20260506013945 59 0 0.0 0.9 0.07 0.15 0.15 93 1006.3
20260506013443 59 295 0.0 0.9 0.07 0.14 0.14 93 1006.5
20260506012939 59 341 0.0 0.0 0.07 0.14 0.14 93 1006.3
20260506012436 59 7 0.0 0.9 0.00 0.13 0.13 93 1005.9
20260506011933 59 28 0.0 1.7 0.00 0.13 0.13 93 1006.0
20260506011430 59 342 0.0 0.0 0.05 0.13 0.13 93 1006.1
20260506010927 59 343 0.0 2.6 0.05 0.13 0.13 93 1005.9
20260506010426 59 356 0.0 0.0 0.00 0.12 0.12 93 1005.9
20260506005922 59 4 0.0 0.9 0.07 0.12 0.12 93 1006.3
20260506005420 59 9 0.0 1.7 0.07 0.12 0.12 93 1006.6
20260506004914 59 2 0.0 2.6 0.00 0.11 0.11 93 1006.5
20260506004413 59 331 0.0 0.9 0.00 0.11 0.11 93 1006.3
20260506003909 59 267 1.7 4.3 0.00 0.11 0.11 93 1006.5
20260506003405 59 244 3.5 5.2 0.00 0.11 0.11 93 1006.3
20260506002902 59 348 0.0 2.6 0.00 0.11 0.11 93 1006.5
20260506002358 59 338 0.0 0.9 0.00 0.11 0.11 93 1006.6
20260506001853 59 348 0.0 0.0 0.00 0.11 0.11 93 1006.4
20260506001350 59 350 0.0 0.9 0.00 0.11 0.11 93 1006.3
20260506000847 59 168 0.9 1.7 0.00 0.11 0.11 93 1006.5
20260506000346 59 335 0.9 2.6 0.00 0.11 0.11 93 1006.3
20260505235842 59 297 0.9 1.7 0.00 0.11 0.11 93 1006.4